Year,Month,Day,Hour,Minute,Value (Times are PST for temperature in C)
2014,07,10,00,00,15.10
2014,07,10,00,01,15.10
2014,07,10,00,02,15.00
2014,07,10,00,03,15.00
2014,07,10,00,04,15.00
2014,07,10,00,05,14.90
2014,07,10,00,06,14.90
2014,07,10,00,07,14.90
2014,07,10,00,08,14.90
2014,07,10,00,09,14.90
2014,07,10,00,10,14.90
2014,07,10,00,11,14.90
2014,07,10,00,12,14.80
2014,07,10,00,13,14.80
2014,07,10,00,14,14.80
2014,07,10,00,15,14.80
2014,07,10,00,16,14.80
2014,07,10,00,17,14.80
2014,07,10,00,18,14.80
2014,07,10,00,19,14.80
2014,07,10,00,20,14.80
2014,07,10,00,21,14.80
2014,07,10,00,22,14.80
2014,07,10,00,23,14.80
2014,07,10,00,24,14.80
2014,07,10,00,25,14.80
2014,07,10,00,26,14.80
2014,07,10,00,27,14.80
2014,07,10,00,28,14.80
2014,07,10,00,29,14.80
2014,07,10,00,30,14.80
2014,07,10,00,31,14.80
2014,07,10,00,32,14.80
2014,07,10,00,33,14.80
2014,07,10,00,34,14.80
2014,07,10,00,35,14.80
2014,07,10,00,36,14.80
2014,07,10,00,37,14.80
2014,07,10,00,38,14.80
2014,07,10,00,39,14.80
2014,07,10,00,40,14.80
2014,07,10,00,41,14.80
2014,07,10,00,42,14.80
2014,07,10,00,43,14.70
2014,07,10,00,44,14.70
2014,07,10,00,45,14.70
2014,07,10,00,46,14.70
2014,07,10,00,47,14.70
2014,07,10,00,48,14.70
2014,07,10,00,49,14.70
2014,07,10,00,50,14.70
2014,07,10,00,51,14.70
2014,07,10,00,52,14.70
2014,07,10,00,53,14.70
2014,07,10,00,54,14.70
2014,07,10,00,55,14.70
2014,07,10,00,56,14.70
2014,07,10,00,57,14.70
2014,07,10,00,58,14.70
2014,07,10,00,59,14.60
2014,07,10,01,00,14.60
2014,07,10,01,01,14.60
2014,07,10,01,02,14.60
2014,07,10,01,03,14.60
2014,07,10,01,04,14.60
2014,07,10,01,05,14.60
2014,07,10,01,06,14.60
2014,07,10,01,07,14.60
2014,07,10,01,08,14.60
2014,07,10,01,09,14.60
2014,07,10,01,10,14.60
2014,07,10,01,11,14.60
2014,07,10,01,12,14.60
2014,07,10,01,13,14.60
2014,07,10,01,14,14.50
2014,07,10,01,15,14.50
2014,07,10,01,16,14.50
2014,07,10,01,17,14.50
2014,07,10,01,18,14.40
2014,07,10,01,19,14.40
2014,07,10,01,20,14.40
2014,07,10,01,21,14.40
2014,07,10,01,22,14.30
2014,07,10,01,23,14.30
2014,07,10,01,24,14.30
2014,07,10,01,25,14.30
2014,07,10,01,26,14.30
2014,07,10,01,27,14.20
2014,07,10,01,28,14.20
2014,07,10,01,29,14.20
2014,07,10,01,30,14.20
2014,07,10,01,31,14.10
2014,07,10,01,32,14.10
2014,07,10,01,33,14.10
2014,07,10,01,34,14.10
2014,07,10,01,35,14.00
2014,07,10,01,36,14.00
2014,07,10,01,37,13.90
2014,07,10,01,38,13.90
2014,07,10,01,39,13.90
2014,07,10,01,40,13.80
2014,07,10,01,41,13.80
2014,07,10,01,42,13.80
2014,07,10,01,43,13.70
2014,07,10,01,44,13.70
2014,07,10,01,45,13.70
2014,07,10,01,46,13.60
2014,07,10,01,47,13.60
2014,07,10,01,48,13.60
2014,07,10,01,49,13.60
2014,07,10,01,50,13.60
2014,07,10,01,51,13.50
2014,07,10,01,52,13.50
2014,07,10,01,53,13.50
2014,07,10,01,54,13.50
2014,07,10,01,55,13.50
2014,07,10,01,56,13.50
2014,07,10,01,57,13.50
2014,07,10,01,58,13.40
2014,07,10,01,59,13.40
2014,07,10,02,00,13.40
2014,07,10,02,01,13.40
2014,07,10,02,02,13.40
2014,07,10,02,03,13.40
2014,07,10,02,04,13.30
2014,07,10,02,05,13.30
2014,07,10,02,06,13.30
2014,07,10,02,07,13.30
2014,07,10,02,08,13.30
2014,07,10,02,09,13.30
2014,07,10,02,10,13.30
2014,07,10,02,11,13.30
2014,07,10,02,12,13.30
2014,07,10,02,13,13.30
2014,07,10,02,14,13.30
2014,07,10,02,15,13.30
2014,07,10,02,16,13.30
2014,07,10,02,17,13.30
2014,07,10,02,18,13.30
2014,07,10,02,19,13.30
2014,07,10,02,20,13.30
2014,07,10,02,21,13.30
2014,07,10,02,22,13.30
2014,07,10,02,23,13.40
2014,07,10,02,24,13.40
2014,07,10,02,25,13.40
2014,07,10,02,26,13.40
2014,07,10,02,27,13.40
2014,07,10,02,28,13.40
2014,07,10,02,29,13.40
2014,07,10,02,30,13.40
2014,07,10,02,31,13.40
2014,07,10,02,32,13.40
2014,07,10,02,33,13.40
2014,07,10,02,34,13.40
2014,07,10,02,35,13.40
2014,07,10,02,36,13.40
2014,07,10,02,37,13.40
2014,07,10,02,38,13.40
2014,07,10,02,39,13.50
2014,07,10,02,40,13.50
2014,07,10,02,41,13.50
2014,07,10,02,42,13.50
2014,07,10,02,43,13.50
2014,07,10,02,44,13.50
2014,07,10,02,45,13.50
2014,07,10,02,46,13.50
2014,07,10,02,47,13.50
2014,07,10,02,48,13.50
2014,07,10,02,49,13.50
2014,07,10,02,50,13.50
2014,07,10,02,51,13.50
2014,07,10,02,52,13.60
2014,07,10,02,53,13.60
2014,07,10,02,54,13.60
2014,07,10,02,55,13.60
2014,07,10,02,56,13.60
2014,07,10,02,57,13.60
2014,07,10,02,58,13.60
2014,07,10,02,59,13.60
2014,07,10,03,00,13.60
2014,07,10,03,01,13.60
2014,07,10,03,02,13.60
2014,07,10,03,03,13.50
2014,07,10,03,04,13.50
2014,07,10,03,05,13.50
2014,07,10,03,06,13.50
2014,07,10,03,07,13.50
2014,07,10,03,08,13.50
2014,07,10,03,09,13.50
2014,07,10,03,10,13.50
2014,07,10,03,11,13.50
2014,07,10,03,12,13.50
2014,07,10,03,13,13.50
2014,07,10,03,14,13.60
2014,07,10,03,15,13.60
2014,07,10,03,16,13.60
2014,07,10,03,17,13.60
2014,07,10,03,18,13.60
2014,07,10,03,19,13.70
2014,07,10,03,20,13.70
2014,07,10,03,21,13.70
2014,07,10,03,22,13.70
2014,07,10,03,23,13.70
2014,07,10,03,24,13.70
2014,07,10,03,25,13.70
2014,07,10,03,26,13.70
2014,07,10,03,27,13.80
2014,07,10,03,28,13.80
2014,07,10,03,29,13.80
2014,07,10,03,30,13.80
2014,07,10,03,31,13.80
2014,07,10,03,32,13.80
2014,07,10,03,33,13.90
2014,07,10,03,34,13.90
2014,07,10,03,35,14.00
2014,07,10,03,36,14.00
2014,07,10,03,37,14.00
2014,07,10,03,38,14.00
2014,07,10,03,39,14.00
2014,07,10,03,40,14.10
2014,07,10,03,41,14.10
2014,07,10,03,42,14.10
2014,07,10,03,43,14.10
2014,07,10,03,44,14.10
2014,07,10,03,45,14.10
2014,07,10,03,46,14.20
2014,07,10,03,47,14.10
2014,07,10,03,48,14.20
2014,07,10,03,49,14.20
2014,07,10,03,50,14.20
2014,07,10,03,51,14.10
2014,07,10,03,52,14.10
2014,07,10,03,53,14.10
2014,07,10,03,54,14.10
2014,07,10,03,55,14.10
2014,07,10,03,56,14.00
2014,07,10,03,57,14.00
2014,07,10,03,58,14.00
2014,07,10,03,59,14.00
2014,07,10,04,00,14.00
2014,07,10,04,01,14.00
2014,07,10,04,02,14.00
2014,07,10,04,03,14.00
2014,07,10,04,04,14.00
2014,07,10,04,05,14.00
2014,07,10,04,06,14.00
2014,07,10,04,07,13.90
2014,07,10,04,08,13.90
2014,07,10,04,09,13.90
2014,07,10,04,10,13.90
2014,07,10,04,11,14.00
2014,07,10,04,12,14.00
2014,07,10,04,13,14.00
2014,07,10,04,14,14.00
2014,07,10,04,15,13.90
2014,07,10,04,16,13.90
2014,07,10,04,17,13.90
2014,07,10,04,18,13.90
2014,07,10,04,19,13.90
2014,07,10,04,20,13.90
2014,07,10,04,21,13.90
2014,07,10,04,22,13.80
2014,07,10,04,23,13.80
2014,07,10,04,24,13.80
2014,07,10,04,25,13.80
2014,07,10,04,26,13.80
2014,07,10,04,27,13.80
2014,07,10,04,28,13.80
2014,07,10,04,29,13.80
2014,07,10,04,30,13.80
2014,07,10,04,31,13.80
2014,07,10,04,32,13.80
2014,07,10,04,33,13.70
2014,07,10,04,34,13.70
2014,07,10,04,35,13.70
2014,07,10,04,36,13.70
2014,07,10,04,37,13.60
2014,07,10,04,38,13.60
2014,07,10,04,39,13.60
2014,07,10,04,40,13.50
2014,07,10,04,41,13.50
2014,07,10,04,42,13.40
2014,07,10,04,43,13.40
2014,07,10,04,44,13.40
2014,07,10,04,45,13.30
2014,07,10,04,46,13.30
2014,07,10,04,47,13.30
2014,07,10,04,48,13.30
2014,07,10,04,49,13.30
2014,07,10,04,50,13.20
2014,07,10,04,51,13.20
2014,07,10,04,52,13.20
2014,07,10,04,53,13.20
2014,07,10,04,54,13.10
2014,07,10,04,55,13.10
2014,07,10,04,56,13.00
2014,07,10,04,57,13.00
2014,07,10,04,58,12.90
2014,07,10,04,59,12.80
2014,07,10,05,00,12.80
2014,07,10,05,01,12.70
2014,07,10,05,02,12.70
2014,07,10,05,03,12.60
2014,07,10,05,04,12.50
2014,07,10,05,05,12.50
2014,07,10,05,06,12.40
2014,07,10,05,07,12.40
2014,07,10,05,08,12.30
2014,07,10,05,09,12.30
2014,07,10,05,10,12.30
2014,07,10,05,11,12.20
2014,07,10,05,12,12.20
2014,07,10,05,13,12.20
2014,07,10,05,14,12.10
2014,07,10,05,15,12.10
2014,07,10,05,16,12.10
2014,07,10,05,17,12.10
2014,07,10,05,18,12.00
2014,07,10,05,19,12.00
2014,07,10,05,20,12.00
2014,07,10,05,21,12.00
2014,07,10,05,22,11.90
2014,07,10,05,23,11.90
2014,07,10,05,24,11.90
2014,07,10,05,25,11.90
2014,07,10,05,26,11.80
2014,07,10,05,27,11.80
2014,07,10,05,28,11.80
2014,07,10,05,29,11.80
2014,07,10,05,30,11.80
2014,07,10,05,31,11.70
2014,07,10,05,32,11.70
2014,07,10,05,33,11.70
2014,07,10,05,34,11.70
2014,07,10,05,35,11.60
2014,07,10,05,36,11.60
2014,07,10,05,37,11.60
2014,07,10,05,38,11.60
2014,07,10,05,39,11.60
2014,07,10,05,40,11.60
2014,07,10,05,41,11.60
2014,07,10,05,42,11.50
2014,07,10,05,43,11.50
2014,07,10,05,44,11.50
2014,07,10,05,45,11.50
2014,07,10,05,46,11.40
2014,07,10,05,47,11.40
2014,07,10,05,48,11.40
2014,07,10,05,49,11.40
2014,07,10,05,50,11.40
2014,07,10,05,51,11.40
2014,07,10,05,52,11.40
2014,07,10,05,53,11.30
2014,07,10,05,54,11.30
2014,07,10,05,55,11.30
2014,07,10,05,56,11.30
2014,07,10,05,57,11.30
2014,07,10,05,58,11.30
2014,07,10,05,59,11.20
2014,07,10,06,00,11.20
2014,07,10,06,01,11.20
2014,07,10,06,02,11.20
2014,07,10,06,03,11.20
2014,07,10,06,04,11.20
2014,07,10,06,05,11.10
2014,07,10,06,06,11.10
2014,07,10,06,07,11.10
2014,07,10,06,08,11.10
2014,07,10,06,09,11.10
2014,07,10,06,10,11.10
2014,07,10,06,11,11.10
2014,07,10,06,12,11.20
2014,07,10,06,13,11.20
2014,07,10,06,14,11.30
2014,07,10,06,15,11.30
2014,07,10,06,16,11.40
2014,07,10,06,17,11.50
2014,07,10,06,18,11.50
2014,07,10,06,19,11.50
2014,07,10,06,20,11.60
2014,07,10,06,21,11.60
2014,07,10,06,22,11.70
2014,07,10,06,23,11.70
2014,07,10,06,24,11.70
2014,07,10,06,25,11.80
2014,07,10,06,26,11.80
2014,07,10,06,27,11.80
2014,07,10,06,28,11.90
2014,07,10,06,29,11.90
2014,07,10,06,30,12.00
2014,07,10,06,31,12.00
2014,07,10,06,32,12.10
2014,07,10,06,33,12.20
2014,07,10,06,34,12.30
2014,07,10,06,35,12.40
2014,07,10,06,36,12.50
2014,07,10,06,37,12.50
2014,07,10,06,38,12.60
2014,07,10,06,39,12.70
2014,07,10,06,40,12.80
2014,07,10,06,41,12.90
2014,07,10,06,42,13.00
2014,07,10,06,43,13.10
2014,07,10,06,44,13.10
2014,07,10,06,45,13.20
2014,07,10,06,46,13.20
2014,07,10,06,47,13.30
2014,07,10,06,48,13.30
2014,07,10,06,49,13.40
2014,07,10,06,50,13.50
2014,07,10,06,51,13.50
2014,07,10,06,52,13.60
2014,07,10,06,53,13.70
2014,07,10,06,54,13.70
2014,07,10,06,55,13.80
2014,07,10,06,56,13.80
2014,07,10,06,57,13.90
2014,07,10,06,58,14.00
2014,07,10,06,59,14.10
2014,07,10,07,00,14.10
2014,07,10,07,01,14.20
2014,07,10,07,02,14.30
2014,07,10,07,03,14.40
2014,07,10,07,04,14.50
2014,07,10,07,05,14.60
2014,07,10,07,06,14.60
2014,07,10,07,07,14.70
2014,07,10,07,08,14.70
2014,07,10,07,09,14.80
2014,07,10,07,10,14.80
2014,07,10,07,11,14.80
2014,07,10,07,12,14.90
2014,07,10,07,13,14.90
2014,07,10,07,14,15.00
2014,07,10,07,15,15.00
2014,07,10,07,16,15.10
2014,07,10,07,17,15.10
2014,07,10,07,18,15.10
2014,07,10,07,19,15.20
2014,07,10,07,20,15.20
2014,07,10,07,21,15.30
2014,07,10,07,22,15.40
2014,07,10,07,23,15.40
2014,07,10,07,24,15.50
2014,07,10,07,25,15.50
2014,07,10,07,26,15.60
2014,07,10,07,27,15.60
2014,07,10,07,28,15.60
2014,07,10,07,29,15.70
2014,07,10,07,30,15.70
2014,07,10,07,31,15.70
2014,07,10,07,32,15.80
2014,07,10,07,33,15.80
2014,07,10,07,34,15.80
2014,07,10,07,35,15.80
2014,07,10,07,36,15.80
2014,07,10,07,37,15.90
2014,07,10,07,38,15.90
2014,07,10,07,39,16.00
2014,07,10,07,40,16.00
2014,07,10,07,41,16.10
2014,07,10,07,42,16.20
2014,07,10,07,43,16.20
2014,07,10,07,44,16.20
2014,07,10,07,45,16.30
2014,07,10,07,46,16.30
2014,07,10,07,47,16.30
2014,07,10,07,48,16.40
2014,07,10,07,49,16.40
2014,07,10,07,50,16.40
2014,07,10,07,51,16.50
2014,07,10,07,52,16.50
2014,07,10,07,53,16.60
2014,07,10,07,54,16.60
2014,07,10,07,55,16.60
2014,07,10,07,56,16.60
2014,07,10,07,57,16.60
2014,07,10,07,58,16.60
2014,07,10,07,59,16.60
2014,07,10,08,00,16.60
2014,07,10,08,01,16.60
2014,07,10,08,02,16.60
2014,07,10,08,03,16.70
2014,07,10,08,04,16.70
2014,07,10,08,05,16.80
2014,07,10,08,06,16.80
2014,07,10,08,07,16.90
2014,07,10,08,08,16.90
2014,07,10,08,09,16.90
2014,07,10,08,10,17.00
2014,07,10,08,11,17.00
2014,07,10,08,12,17.10
2014,07,10,08,13,17.10
2014,07,10,08,14,17.10
2014,07,10,08,15,17.10
2014,07,10,08,16,17.10
2014,07,10,08,17,17.10
2014,07,10,08,18,17.10
2014,07,10,08,19,17.10
2014,07,10,08,20,17.10
2014,07,10,08,21,17.10
2014,07,10,08,22,17.10
2014,07,10,08,23,17.20
2014,07,10,08,24,17.20
2014,07,10,08,25,17.30
2014,07,10,08,26,17.40
2014,07,10,08,27,17.40
2014,07,10,08,28,17.40
2014,07,10,08,29,17.40
2014,07,10,08,30,17.50
2014,07,10,08,31,17.50
2014,07,10,08,32,17.60
2014,07,10,08,33,17.60
2014,07,10,08,34,17.60
2014,07,10,08,35,17.70
2014,07,10,08,36,17.70
2014,07,10,08,37,17.70
2014,07,10,08,38,17.70
2014,07,10,08,39,17.80
2014,07,10,08,40,17.90
2014,07,10,08,41,17.90
2014,07,10,08,42,17.90
2014,07,10,08,43,17.90
2014,07,10,08,44,18.00
2014,07,10,08,45,18.00
2014,07,10,08,46,18.00
2014,07,10,08,47,18.00
2014,07,10,08,48,18.00
2014,07,10,08,49,18.10
2014,07,10,08,50,18.20
2014,07,10,08,51,18.30
2014,07,10,08,52,18.30
2014,07,10,08,53,18.40
2014,07,10,08,54,18.40
2014,07,10,08,55,18.50
2014,07,10,08,56,18.50
2014,07,10,08,57,18.50
2014,07,10,08,58,18.50
2014,07,10,08,59,18.40
2014,07,10,09,00,18.40
2014,07,10,09,01,18.40
2014,07,10,09,02,18.30
2014,07,10,09,03,18.30
2014,07,10,09,04,18.30
2014,07,10,09,05,18.10
2014,07,10,09,06,18.00
2014,07,10,09,07,18.00
2014,07,10,09,08,18.00
2014,07,10,09,09,18.10
2014,07,10,09,10,18.10
2014,07,10,09,11,18.10
2014,07,10,09,12,18.10
2014,07,10,09,13,18.20
2014,07,10,09,14,18.20
2014,07,10,09,15,18.20
2014,07,10,09,16,18.30
2014,07,10,09,17,18.40
2014,07,10,09,18,18.50
2014,07,10,09,19,18.40
2014,07,10,09,20,18.40
2014,07,10,09,21,18.30
2014,07,10,09,22,18.10
2014,07,10,09,23,18.00
2014,07,10,09,24,17.90
2014,07,10,09,25,17.80
2014,07,10,09,26,17.70
2014,07,10,09,27,17.60
2014,07,10,09,28,17.60
2014,07,10,09,29,17.50
2014,07,10,09,30,17.60
2014,07,10,09,31,17.50
2014,07,10,09,32,17.50
2014,07,10,09,33,17.50
2014,07,10,09,34,17.50
2014,07,10,09,35,17.60
2014,07,10,09,36,17.60
2014,07,10,09,37,17.70
2014,07,10,09,38,17.70
2014,07,10,09,39,17.70
2014,07,10,09,40,17.80
2014,07,10,09,41,17.80
2014,07,10,09,42,17.90
2014,07,10,09,43,17.80
2014,07,10,09,44,17.80
2014,07,10,09,45,17.90
2014,07,10,09,46,17.90
2014,07,10,09,47,18.00
2014,07,10,09,48,17.90
2014,07,10,09,49,17.90
2014,07,10,09,50,17.90
2014,07,10,09,51,18.00
2014,07,10,09,52,18.00
2014,07,10,09,53,18.00
2014,07,10,09,54,18.10
2014,07,10,09,55,18.10
2014,07,10,09,56,18.20
2014,07,10,09,57,18.20
2014,07,10,09,58,18.30
2014,07,10,09,59,18.30
2014,07,10,10,00,18.20
2014,07,10,10,01,18.10
2014,07,10,10,02,18.10
2014,07,10,10,03,18.10
2014,07,10,10,04,18.10
2014,07,10,10,05,18.20
2014,07,10,10,06,18.20
2014,07,10,10,07,18.30
2014,07,10,10,08,18.30
2014,07,10,10,09,18.30
2014,07,10,10,10,18.20
2014,07,10,10,11,18.10
2014,07,10,10,12,18.10
2014,07,10,10,13,18.10
2014,07,10,10,14,18.10
2014,07,10,10,15,18.20
2014,07,10,10,16,18.30
2014,07,10,10,17,18.40
2014,07,10,10,18,18.40
2014,07,10,10,19,18.30
2014,07,10,10,20,18.30
2014,07,10,10,21,18.20
2014,07,10,10,22,18.20
2014,07,10,10,23,18.30
2014,07,10,10,24,18.30
2014,07,10,10,25,18.40
2014,07,10,10,26,18.40
2014,07,10,10,27,18.60
2014,07,10,10,28,18.70
2014,07,10,10,29,18.80
2014,07,10,10,30,18.80
2014,07,10,10,31,18.80
2014,07,10,10,32,18.80
2014,07,10,10,33,18.80
2014,07,10,10,34,18.90
2014,07,10,10,35,18.90
2014,07,10,10,36,18.80
2014,07,10,10,37,18.80
2014,07,10,10,38,18.60
2014,07,10,10,39,18.60
2014,07,10,10,40,18.50
2014,07,10,10,41,18.50
2014,07,10,10,42,18.50
2014,07,10,10,43,18.60
2014,07,10,10,44,18.60
2014,07,10,10,45,18.70
2014,07,10,10,46,18.70
2014,07,10,10,47,18.80
2014,07,10,10,48,18.90
2014,07,10,10,49,19.00
2014,07,10,10,50,19.10
2014,07,10,10,51,19.10
2014,07,10,10,52,19.00
2014,07,10,10,53,18.90
2014,07,10,10,54,18.80
2014,07,10,10,55,18.80
2014,07,10,10,56,18.80
2014,07,10,10,57,18.90
2014,07,10,10,58,19.10
2014,07,10,10,59,19.20
2014,07,10,11,00,19.30
2014,07,10,11,01,19.40
2014,07,10,11,02,19.50
2014,07,10,11,03,19.60
2014,07,10,11,04,19.70
2014,07,10,11,05,19.70
2014,07,10,11,06,19.80
2014,07,10,11,07,19.90
2014,07,10,11,08,19.90
2014,07,10,11,09,20.00
2014,07,10,11,10,20.00
2014,07,10,11,11,19.90
2014,07,10,11,12,19.80
2014,07,10,11,13,19.70
2014,07,10,11,14,19.70
2014,07,10,11,15,19.70
2014,07,10,11,16,19.70
2014,07,10,11,17,19.60
2014,07,10,11,18,19.60
2014,07,10,11,19,19.60
2014,07,10,11,20,19.50
2014,07,10,11,21,19.60
2014,07,10,11,22,19.60
2014,07,10,11,23,19.60
2014,07,10,11,24,19.50
2014,07,10,11,25,19.50
2014,07,10,11,26,19.50
2014,07,10,11,27,19.40
2014,07,10,11,28,19.30
2014,07,10,11,29,19.10
2014,07,10,11,30,19.00
2014,07,10,11,31,18.90
2014,07,10,11,32,18.80
2014,07,10,11,33,18.70
2014,07,10,11,34,18.60
2014,07,10,11,35,18.60
2014,07,10,11,36,18.60
2014,07,10,11,37,18.60
2014,07,10,11,38,18.60
2014,07,10,11,39,18.60
2014,07,10,11,40,18.60
2014,07,10,11,41,18.60
2014,07,10,11,42,18.60
2014,07,10,11,43,18.60
2014,07,10,11,44,18.50
2014,07,10,11,45,18.50
2014,07,10,11,46,18.40
2014,07,10,11,47,18.40
2014,07,10,11,48,18.50
2014,07,10,11,49,18.60
2014,07,10,11,50,18.70
2014,07,10,11,51,18.70
2014,07,10,11,52,18.70
2014,07,10,11,53,18.70
2014,07,10,11,54,18.60
2014,07,10,11,55,18.60
2014,07,10,11,56,18.60
2014,07,10,11,57,18.60
2014,07,10,11,58,18.60
2014,07,10,11,59,18.60
2014,07,10,12,00,18.60
2014,07,10,12,01,18.70
2014,07,10,12,02,18.70
2014,07,10,12,03,18.80
2014,07,10,12,04,18.90
2014,07,10,12,05,18.90
2014,07,10,12,06,19.00
2014,07,10,12,07,19.00
2014,07,10,12,08,19.00
2014,07,10,12,09,19.00
2014,07,10,12,10,18.90
2014,07,10,12,11,18.90
2014,07,10,12,12,18.90
2014,07,10,12,13,18.90
2014,07,10,12,14,19.00
2014,07,10,12,15,19.00
2014,07,10,12,16,19.00
2014,07,10,12,17,19.10
2014,07,10,12,18,19.10
2014,07,10,12,19,19.10
2014,07,10,12,20,19.10
2014,07,10,12,21,19.20
2014,07,10,12,22,19.20
2014,07,10,12,23,19.20
2014,07,10,12,24,19.20
2014,07,10,12,25,19.20
2014,07,10,12,26,19.20
2014,07,10,12,27,19.20
2014,07,10,12,28,19.20
2014,07,10,12,29,19.20
2014,07,10,12,30,19.30
2014,07,10,12,31,19.30
2014,07,10,12,32,19.30
2014,07,10,12,33,19.30
2014,07,10,12,34,19.30
2014,07,10,12,35,19.30
2014,07,10,12,36,19.20
2014,07,10,12,37,19.20
2014,07,10,12,38,19.20
2014,07,10,12,39,19.20
2014,07,10,12,40,19.30
2014,07,10,12,41,19.30
2014,07,10,12,42,19.30
2014,07,10,12,43,19.30
2014,07,10,12,44,19.40
2014,07,10,12,45,19.40
2014,07,10,12,46,19.40
2014,07,10,12,47,19.40
2014,07,10,12,48,19.30
2014,07,10,12,49,19.30
2014,07,10,12,50,19.30
2014,07,10,12,51,19.30
2014,07,10,12,52,19.30
2014,07,10,12,53,19.30
2014,07,10,12,54,19.30
2014,07,10,12,55,19.40
2014,07,10,12,56,19.50
2014,07,10,12,57,19.50
2014,07,10,12,58,19.60
2014,07,10,12,59,19.60
2014,07,10,13,00,19.70
2014,07,10,13,01,19.70
2014,07,10,13,02,19.80
2014,07,10,13,03,19.90
2014,07,10,13,04,19.90
2014,07,10,13,05,19.90
2014,07,10,13,06,20.00
2014,07,10,13,07,20.00
2014,07,10,13,08,20.10
2014,07,10,13,09,20.20
2014,07,10,13,10,20.40
2014,07,10,13,11,20.40
2014,07,10,13,12,20.40
2014,07,10,13,13,20.50
2014,07,10,13,14,20.60
2014,07,10,13,15,20.70
2014,07,10,13,16,20.70
2014,07,10,13,17,20.80
2014,07,10,13,18,20.90
2014,07,10,13,19,20.90
2014,07,10,13,20,20.90
2014,07,10,13,21,20.90
2014,07,10,13,22,21.00
2014,07,10,13,23,21.00
2014,07,10,13,24,21.10
2014,07,10,13,25,21.00
2014,07,10,13,26,21.00
2014,07,10,13,27,21.00
2014,07,10,13,28,20.90
2014,07,10,13,29,20.90
2014,07,10,13,30,20.90
2014,07,10,13,31,20.90
2014,07,10,13,32,20.90
2014,07,10,13,33,20.90
2014,07,10,13,34,20.90
2014,07,10,13,35,20.90
2014,07,10,13,36,20.90
2014,07,10,13,37,21.00
2014,07,10,13,38,21.10
2014,07,10,13,39,21.20
2014,07,10,13,40,21.20
2014,07,10,13,41,21.20
2014,07,10,13,42,21.20
2014,07,10,13,43,21.20
2014,07,10,13,44,21.20
2014,07,10,13,45,21.20
2014,07,10,13,46,21.20
2014,07,10,13,47,21.20
2014,07,10,13,48,21.10
2014,07,10,13,49,21.10
2014,07,10,13,50,21.00
2014,07,10,13,51,21.00
2014,07,10,13,52,21.00
2014,07,10,13,53,21.10
2014,07,10,13,54,21.10
2014,07,10,13,55,21.10
2014,07,10,13,56,21.10
2014,07,10,13,57,21.10
2014,07,10,13,58,21.10
2014,07,10,13,59,21.00
2014,07,10,14,00,21.00
2014,07,10,14,01,20.90
2014,07,10,14,02,20.90
2014,07,10,14,03,20.90
2014,07,10,14,04,20.90
2014,07,10,14,05,21.00
2014,07,10,14,06,21.10
2014,07,10,14,07,21.10
2014,07,10,14,08,21.10
2014,07,10,14,09,21.20
2014,07,10,14,10,21.20
2014,07,10,14,11,21.30
2014,07,10,14,12,21.30
2014,07,10,14,13,21.30
2014,07,10,14,14,21.30
2014,07,10,14,15,21.30
2014,07,10,14,16,21.30
2014,07,10,14,17,21.40
2014,07,10,14,18,21.40
2014,07,10,14,19,21.40
2014,07,10,14,20,21.40
2014,07,10,14,21,21.40
2014,07,10,14,22,21.40
2014,07,10,14,23,21.40
2014,07,10,14,24,21.50
2014,07,10,14,25,21.60
2014,07,10,14,26,21.70
2014,07,10,14,27,21.80
2014,07,10,14,28,21.80
2014,07,10,14,29,21.90
2014,07,10,14,30,21.90
2014,07,10,14,31,21.90
2014,07,10,14,32,22.00
2014,07,10,14,33,22.00
2014,07,10,14,34,22.00
2014,07,10,14,35,21.90
2014,07,10,14,36,21.90
2014,07,10,14,37,22.00
2014,07,10,14,38,22.10
2014,07,10,14,39,22.10
2014,07,10,14,40,22.10
2014,07,10,14,41,22.10
2014,07,10,14,42,22.00
2014,07,10,14,43,21.90
2014,07,10,14,44,21.90
2014,07,10,14,45,22.00
2014,07,10,14,46,22.10
2014,07,10,14,47,22.20
2014,07,10,14,48,22.20
2014,07,10,14,49,22.30
2014,07,10,14,50,22.40
2014,07,10,14,51,22.50
2014,07,10,14,52,22.60
2014,07,10,14,53,22.50
2014,07,10,14,54,22.50
2014,07,10,14,55,22.60
2014,07,10,14,56,22.60
2014,07,10,14,57,22.60
2014,07,10,14,58,22.70
2014,07,10,14,59,22.80
2014,07,10,15,00,22.80
2014,07,10,15,01,22.80
2014,07,10,15,02,22.80
2014,07,10,15,03,22.80
2014,07,10,15,04,22.80
2014,07,10,15,05,22.90
2014,07,10,15,06,22.90
2014,07,10,15,07,23.00
2014,07,10,15,08,23.00
2014,07,10,15,09,23.10
2014,07,10,15,10,23.10
2014,07,10,15,11,23.00
2014,07,10,15,12,23.00
2014,07,10,15,13,22.90
2014,07,10,15,14,22.90
2014,07,10,15,15,22.90
2014,07,10,15,16,22.80
2014,07,10,15,17,22.80
2014,07,10,15,18,22.80
2014,07,10,15,19,22.80
2014,07,10,15,20,22.80
2014,07,10,15,21,22.90
2014,07,10,15,22,22.90
2014,07,10,15,23,22.90
2014,07,10,15,24,23.00
2014,07,10,15,25,23.00
2014,07,10,15,26,23.00
2014,07,10,15,27,23.00
2014,07,10,15,28,23.10
2014,07,10,15,29,23.10
2014,07,10,15,30,23.20
2014,07,10,15,31,23.20
2014,07,10,15,32,23.20
2014,07,10,15,33,23.20
2014,07,10,15,34,23.30
2014,07,10,15,35,23.20
2014,07,10,15,36,23.20
2014,07,10,15,37,23.20
2014,07,10,15,38,23.20
2014,07,10,15,39,23.20
2014,07,10,15,40,23.20
2014,07,10,15,41,23.30
2014,07,10,15,42,23.40
2014,07,10,15,43,23.50
2014,07,10,15,44,23.60
2014,07,10,15,45,23.60
2014,07,10,15,46,23.50
2014,07,10,15,47,23.40
2014,07,10,15,48,23.40
2014,07,10,15,49,23.30
2014,07,10,15,50,23.30
2014,07,10,15,51,23.30
2014,07,10,15,52,23.40
2014,07,10,15,53,23.50
2014,07,10,15,54,23.60
2014,07,10,15,55,23.70
2014,07,10,15,56,23.80
2014,07,10,15,57,23.80
2014,07,10,15,58,23.70
2014,07,10,15,59,23.70
2014,07,10,16,00,23.70
2014,07,10,16,01,23.70
2014,07,10,16,02,23.70
2014,07,10,16,03,23.70
2014,07,10,16,04,23.70
2014,07,10,16,05,23.60
2014,07,10,16,06,23.60
2014,07,10,16,07,23.50
2014,07,10,16,08,23.60
2014,07,10,16,09,23.60
2014,07,10,16,10,23.60
2014,07,10,16,11,23.60
2014,07,10,16,12,23.60
2014,07,10,16,13,23.70
2014,07,10,16,14,23.70
2014,07,10,16,15,23.70
2014,07,10,16,16,23.80
2014,07,10,16,17,23.90
2014,07,10,16,18,23.90
2014,07,10,16,19,23.90
2014,07,10,16,20,23.90
2014,07,10,16,21,23.90
2014,07,10,16,22,23.90
2014,07,10,16,23,23.90
2014,07,10,16,24,23.90
2014,07,10,16,25,23.90
2014,07,10,16,26,23.90
2014,07,10,16,27,23.90
2014,07,10,16,28,23.90
2014,07,10,16,29,23.80
2014,07,10,16,30,23.80
2014,07,10,16,31,23.80
2014,07,10,16,32,23.80
2014,07,10,16,33,23.80
2014,07,10,16,34,23.80
2014,07,10,16,35,23.80
2014,07,10,16,36,23.80
2014,07,10,16,37,23.70
2014,07,10,16,38,23.80
2014,07,10,16,39,23.80
2014,07,10,16,40,23.80
2014,07,10,16,41,23.80
2014,07,10,16,42,23.90
2014,07,10,16,43,23.90
2014,07,10,16,44,23.90
2014,07,10,16,45,23.90
2014,07,10,16,46,23.90
2014,07,10,16,47,24.00
2014,07,10,16,48,24.00
2014,07,10,16,49,24.10
2014,07,10,16,50,24.10
2014,07,10,16,51,24.10
2014,07,10,16,52,24.10
2014,07,10,16,53,24.20
2014,07,10,16,54,24.20
2014,07,10,16,55,24.30
2014,07,10,16,56,24.30
2014,07,10,16,57,24.30
2014,07,10,16,58,24.30
2014,07,10,16,59,24.40
2014,07,10,17,00,24.40
2014,07,10,17,01,24.50
2014,07,10,17,02,24.50
2014,07,10,17,03,24.50
2014,07,10,17,04,24.50
2014,07,10,17,05,24.60
2014,07,10,17,06,24.50
2014,07,10,17,07,24.40
2014,07,10,17,08,24.40
2014,07,10,17,09,24.30
2014,07,10,17,10,24.30
2014,07,10,17,11,24.30
2014,07,10,17,12,24.20
2014,07,10,17,13,24.20
2014,07,10,17,14,24.20
2014,07,10,17,15,24.30
2014,07,10,17,16,24.30
2014,07,10,17,17,24.30
2014,07,10,17,18,24.30
2014,07,10,17,19,24.40